DateTimeUTC,F1_A11,F1_S11,BsB_S11,BsG_S11,BsR_S11,BbsB_S11,BbsG_S11,BbsR_S11,BaB_A11,BaG_A11,BaR_A11,Tu_S11,T_S11,Uu_S11,U_S11,P_S11,T1_A11
2021-08-11T02:00:00Z,00040200,20000000,,,,,,,0000.33,0000.08,-000.14,18.5,25.0,12.9,08.7,0676.7,31.0
2021-08-11T02:01:00Z,00040200,20000000,,,,,,,-000.54,-000.26,-000.16,18.5,25.0,12.9,08.7,0676.7,31.0
2021-08-11T02:02:00Z,00040200,20000000,,,,,,,-000.10,-000.15,-000.04,18.5,25.0,12.9,08.7,0676.7,31.0
2021-08-11T02:03:00Z,00040200,60000000,,,,,,,0000.48,0000.34,0000.66,18.5,25.0,12.9,08.7,0676.7,31.0
2021-08-11T02:04:00Z,00040200,40000000,0003.28,0001.56,0001.26,0000.36,0000.27,0000.43,0000.35,0000.27,0000.37,18.6,24.8,12.8,08.7,0677.6,31.0
2021-08-11T02:05:00Z,00040200,00000000,0002.23,0002.06,0001.07,0000.78,0000.07,0000.27,-000.56,0000.09,-000.23,18.6,24.8,12.8,08.8,0677.7,31.0
2021-08-11T02:06:00Z,00040200,00000000,0002.65,0001.95,0001.21,0000.71,0000.33,0000.32,0000.14,0000.20,0000.38,18.6,24.8,12.8,08.8,0677.7,31.0
2021-08-11T02:07:00Z,00040200,00000000,0001.96,0002.04,0001.13,0000.23,0000.12,0000.11,0000.22,-000.28,0000.32,18.6,24.8,12.8,08.8,0677.6,31.0
2021-08-11T02:08:00Z,00040200,00000000,0003.20,0001.77,0001.48,0000.44,0000.29,-000.16,-000.36,0000.20,-000.05,18.6,24.8,12.9,08.8,0677.6,31.0
2021-08-11T02:09:00Z,00040200,00000000,0002.42,0002.00,0001.37,0000.78,-000.14,0000.04,0000.15,0000.09,0000.32,18.6,24.8,12.8,08.7,0677.6,31.0
2021-08-11T02:10:00Z,00040200,00000000,0002.40,0001.76,0000.93,0000.49,0000.24,-000.33,0000.20,-000.03,-000.01,18.6,24.8,12.9,08.8,0677.6,31.0
2021-08-11T02:11:00Z,00040200,00000000,0002.11,0001.94,0001.10,0000.12,0000.44,0000.27,-000.25,-000.17,0000.05,18.6,24.7,12.8,08.8,0677.6,31.0
2021-08-11T02:12:00Z,00040200,00000000,0002.54,0001.95,0001.44,0000.54,0000.40,0000.15,-000.33,-000.26,-000.15,18.6,24.7,12.7,08.7,0677.6,31.0
2021-08-11T02:13:00Z,00040200,00000000,0002.58,0001.93,0001.38,0000.10,0000.28,0000.21,0000.12,0000.56,0000.39,18.6,24.7,12.8,08.8,0677.6,31.0
2021-08-11T02:14:00Z,00040200,00000000,0003.40,0002.29,0001.41,0000.91,0000.21,0000.09,0000.35,-000.08,0000.08,18.6,24.7,12.7,08.7,0677.6,31.0
2021-08-11T02:15:00Z,00040200,00000000,0001.98,0001.77,0001.18,0000.40,0000.63,0000.39,-000.09,-000.05,0000.38,18.6,24.7,12.7,08.7,0677.6,31.0
2021-08-11T02:16:00Z,00040200,00000000,0003.11,0001.75,0001.30,0000.85,0000.23,0000.14,-000.42,-000.04,0000.01,18.6,24.7,12.7,08.8,0677.6,31.0
2021-08-11T02:17:00Z,00040200,00000000,0002.15,0001.91,0001.55,0000.01,0000.24,0000.33,0000.29,0000.23,-000.03,18.6,24.7,12.7,08.7,0677.6,31.0
2021-08-11T02:18:00Z,00040200,00000000,0002.46,0001.92,0001.20,0000.37,0000.37,0000.03,-000.01,-000.11,-000.07,18.6,24.7,12.7,08.7,0677.6,31.0
2021-08-11T02:19:00Z,00040200,00000000,0002.53,0001.96,0001.10,0000.35,0000.32,0000.08,-000.30,-000.11,0000.31,18.5,24.7,12.6,08.7,0677.6,31.0
2021-08-11T02:20:00Z,00040200,00000000,0002.07,0001.65,0001.24,0000.03,0000.19,0000.34,0000.02,0000.04,0000.13,18.5,24.7,12.6,08.7,0677.6,31.0
2021-08-11T02:21:00Z,00040200,00000000,0002.81,0001.58,0001.03,0000.47,0000.58,0000.43,0000.29,0000.25,0000.23,18.5,24.7,12.7,08.8,0677.6,31.0
2021-08-11T02:22:00Z,00040200,00000000,0002.15,0001.55,0001.33,-000.15,0000.25,0000.43,-000.14,0000.10,0000.44,18.6,24.7,12.7,08.7,0677.6,31.0
2021-08-11T02:23:00Z,00040200,00000000,0002.33,0001.45,0001.56,0000.12,0000.08,0000.28,0000.39,-000.04,0000.07,18.6,24.7,12.6,08.7,0677.6,31.0
2021-08-11T02:24:00Z,00040200,00000000,0002.74,0001.48,0001.14,0000.36,0000.43,0000.28,-000.11,0000.08,0000.01,18.6,24.7,12.7,08.7,0677.6,31.0
2021-08-11T02:25:00Z,00040200,00000000,0002.49,0001.39,0000.76,-000.01,0000.18,0000.12,0000.06,0000.10,0000.40,18.6,24.7,12.7,08.7,0677.6,31.0
2021-08-11T02:26:00Z,00040200,00000000,0002.45,0001.28,0001.22,0000.28,0000.09,0000.36,-000.07,0000.01,0000.10,18.6,24.7,12.7,08.8,0677.6,31.0
2021-08-11T02:27:00Z,00040200,00000000,0001.92,0001.08,0001.05,0000.49,0000.01,0000.43,0000.28,0000.23,0000.32,18.6,24.7,12.7,08.7,0677.6,31.0
2021-08-11T02:28:00Z,00040200,00000000,0001.97,0001.32,0001.00,0000.54,0000.41,0000.27,-000.06,-000.23,-000.29,18.6,24.7,12.7,08.7,0677.6,31.0
2021-08-11T02:29:00Z,00040200,00000000,0002.09,0001.12,0000.84,0000.60,0000.24,-000.13,-000.00,0000.43,0000.43,18.6,24.7,12.6,08.7,0677.5,31.0
2021-08-11T02:30:00Z,00040200,00000000,0002.82,0001.13,0000.98,0000.11,0000.52,0000.23,-000.03,-000.17,-000.11,18.6,24.7,12.8,08.8,0677.5,31.0
2021-08-11T02:31:00Z,00040200,00000000,0001.78,0001.12,0000.78,0000.11,0000.41,0000.18,0000.36,0000.22,0000.71,18.6,24.7,12.7,08.8,0677.5,31.0
2021-08-11T02:32:00Z,00040200,00000000,0001.41,0001.07,0000.69,0000.44,0000.13,0000.17,-000.01,0000.18,-000.05,18.6,24.7,12.7,08.8,0677.5,31.0
2021-08-11T02:33:00Z,00040200,00000000,0001.97,0000.91,0000.94,0000.53,0000.25,0000.10,-000.28,0000.08,0000.05,18.6,24.7,12.8,08.8,0677.5,31.0
2021-08-11T02:34:00Z,00040200,00000000,0001.50,0001.33,0001.01,0000.29,0000.38,0000.36,-000.02,-000.13,0000.03,18.6,24.7,12.7,08.8,0677.5,31.0
2021-08-11T02:35:00Z,00040200,00000000,0001.76,0000.95,0000.54,0000.46,0000.17,0000.16,0000.35,0000.33,0000.40,18.6,24.7,12.8,08.8,0677.5,31.0
2021-08-11T02:36:00Z,00040200,00000000,0002.30,0001.06,0001.06,0000.42,-000.05,-000.00,0000.20,-000.26,0000.16,18.6,24.7,12.7,08.8,0677.5,31.0
2021-08-11T02:37:00Z,00040200,00000000,0001.50,0000.93,0000.96,0000.58,0000.23,0000.36,-000.26,0000.05,0000.01,18.6,24.7,12.8,08.8,0677.5,31.0
2021-08-11T02:38:00Z,00040200,00000000,0001.70,0001.20,0001.03,0001.09,0000.22,0000.28,-000.13,0000.23,0000.46,18.6,24.7,12.8,08.8,0677.4,31.0
2021-08-11T02:39:00Z,00040200,00000000,0002.67,0001.43,0000.92,0000.26,0000.44,0000.35,0000.57,0000.01,-000.01,18.6,24.7,12.8,08.8,0677.4,31.0
2021-08-11T02:40:00Z,00040200,00000000,0002.39,0001.32,0001.29,0000.65,0000.14,0000.41,-000.19,0000.23,0000.18,18.6,24.7,12.8,08.8,0677.4,31.0
2021-08-11T02:41:00Z,00040200,00000000,0002.80,0001.63,0001.00,0000.45,0000.32,0000.27,-000.06,0000.01,0000.69,18.5,24.6,12.7,08.8,0677.4,31.0
2021-08-11T02:42:00Z,00040200,00000000,0003.04,0002.00,0001.11,0000.57,0000.45,0000.23,-000.04,-000.30,-000.48,18.5,24.7,12.8,08.8,0677.4,31.0
2021-08-11T02:43:00Z,00040200,00000000,0002.38,0001.95,0001.46,0000.49,0000.39,0000.18,-000.26,0000.48,0000.26,18.6,24.7,12.8,08.8,0677.4,31.0
2021-08-11T02:44:00Z,00040200,00000000,0003.08,0001.69,0001.01,0000.30,0000.22,-000.08,0000.52,-000.11,0000.17,18.6,24.6,12.8,08.8,0677.5,31.0
2021-08-11T02:45:00Z,00040200,00000000,0002.37,0001.82,0000.96,0000.77,0000.44,0000.35,0000.25,0000.49,0000.57,18.5,24.6,12.8,08.8,0677.5,31.0
2021-08-11T02:46:00Z,00040200,00000000,0001.54,0001.36,0001.26,0000.67,0000.36,0000.28,-000.20,-000.34,-000.15,18.5,24.6,12.9,08.9,0677.5,31.0
2021-08-11T02:47:00Z,00040200,00000000,0002.35,0001.57,0000.60,0000.26,0000.26,-000.11,0000.04,0000.40,0000.22,18.5,24.6,12.8,08.8,0677.4,31.0
2021-08-11T02:48:00Z,00040200,00000000,0002.36,0001.27,0000.89,0000.27,0000.21,-000.13,-000.02,-000.44,0000.09,18.5,24.6,12.8,08.9,0677.4,31.0
2021-08-11T02:49:00Z,00040200,00000000,0002.68,0001.02,0001.40,0000.88,0000.20,0000.56,0000.20,0000.63,-000.21,18.5,24.6,12.9,08.9,0677.4,31.0
2021-08-11T02:50:00Z,00040200,00000000,0001.94,0001.02,0000.56,0000.37,0000.01,0000.14,-000.27,-000.40,0000.68,18.5,24.6,12.9,08.9,0677.4,31.0
2021-08-11T02:51:00Z,00040200,00000000,0001.16,0001.11,0001.08,0000.71,0000.23,0000.07,0000.42,0000.48,0000.15,18.5,24.6,12.9,08.9,0677.4,31.0
2021-08-11T02:52:00Z,00040200,00000000,0002.30,0001.15,0000.83,0000.52,0000.28,-000.07,-000.27,0000.02,0000.24,18.5,24.6,12.9,08.9,0677.4,31.0
2021-08-11T02:53:00Z,00040200,00000000,0001.53,0001.07,0000.96,0000.70,0000.05,0000.18,0000.58,0000.21,0000.08,18.6,24.7,12.7,08.8,0677.4,31.0
2021-08-11T02:54:00Z,00040200,00000000,0001.29,0001.24,0000.82,0000.45,0000.14,0000.31,-000.08,-000.26,0000.39,18.6,24.7,12.8,08.8,0677.4,31.0
2021-08-11T02:55:00Z,00040200,00000000,0001.81,0000.96,0000.65,0000.52,0000.03,0000.11,-000.36,0000.31,-000.44,18.7,24.7,12.8,08.9,0677.4,31.0
2021-08-11T02:56:00Z,00040200,00000000,0001.80,0000.82,0000.57,0000.83,0000.44,-000.12,0000.54,0000.30,0000.28,18.7,24.7,12.8,08.8,0677.4,31.0
2021-08-11T02:57:00Z,00040200,40000000,,,,,,,-000.12,-000.43,0000.31,18.7,24.7,12.8,08.9,0677.6,31.0
2021-08-11T02:58:00Z,00040200,60000000,,,,,,,-000.72,-000.44,-000.52,18.5,24.9,12.9,08.7,0676.4,31.0
2021-08-11T02:59:00Z,00040200,20000000,,,,,,,0000.37,0000.23,0000.35,18.5,25.0,12.9,08.7,0676.4,31.0
